Location: Brabourne
(51.1333°N, 1.0000°E)
Time: 20:19:21
(UTC+00:00)

IRS-1D - Pass Details

Date: 26 October 2021
Orbit: 739 x 817 km, 98.6° (Epoch: 04 December)

Event Time Altitude Azimuth Distance (km) Brightness Sun altitude
Rises 04:24:59 0° 5° (N) 3,270 6.9 -21.4°
Reaches altitude 10° 04:28:07 10° 345° (NNW) 2,322 5.9 -21.0°
Enters shadow 04:29:35 14° 329° (NNW) 2,026 5.4 -20.7°
